• In France
  • List of Countries
  • For 7 days
  • Water Temperature
  • Satellite Maps
  • Weather Map
  • Weather Widgets
  • user-avatar
    Login

    Hourly Weather Kalinowa

    Today, 23 October, Tuesday

    Time Temperature Precipitation Wind Pressure Humidity
    00:00 +5°C° 0 mm 4 mps 759 mmHg 85%
    01:00 +4°C° 0 mm 4 mps 758 mmHg 87%
    02:00 +4°C° 0 mm 4 mps 758 mmHg 87%
    03:00 +4°C° 0 mm 4 mps 757 mmHg 86%
    04:00 +3°C° 0 mm 5 mps 756 mmHg 86%
    05:00 +3°C° 0 mm 6 mps 756 mmHg 83%
    06:00 +3°C° 0 mm 6 mps 755 mmHg 81%
    07:00 +4°C° 0 mm 7 mps 754 mmHg 79%
    08:00 +4°C° 0.2 mm 8 mps 752 mmHg 76%
    09:00 +5°C° 0.2 mm 9 mps 751 mmHg 72%
    10:00 +6°C° 0.2 mm 10 mps 750 mmHg 68%
    11:00 +6°C° 1.3 mm 11 mps 748 mmHg 71%
    12:00 +4°C° 1.3 mm 11 mps 747 mmHg 75%
    13:00 +4°C° 1.3 mm 12 mps 746 mmHg 78%
    14:00 +5°C° 0.7 mm 12 mps 745 mmHg 79%
    15:00 +5°C° 0.7 mm 12 mps 743 mmHg 80%
    16:00 +7°C° 0.7 mm 12 mps 742 mmHg 81%
    17:00 +7°C° 1.5 mm 11 mps 741 mmHg 82%
    18:00 +8°C° 1.5 mm 10 mps 741 mmHg 84%
    19:00 +8°C° 1.5 mm 10 mps 740 mmHg 85%
    20:00 +8°C° 0.7 mm 10 mps 740 mmHg 82%
    21:00 +8°C° 0.7 mm 10 mps 740 mmHg 79%
    22:00 +8°C° 0.7 mm 9 mps 739 mmHg 76%
    23:00 +7°C° 0.1 mm 10 mps 739 mmHg 75%

    Tomorrow, 24 October, Wednesday

    Time Temperature Precipitation Wind Pressure Humidity
    00:00 +7°C° 0.1 mm 10 mps 739 mmHg 74%
    01:00 +6°C° 0.1 mm 10 mps 739 mmHg 73%
    02:00 +6°C° 0.1 mm 10 mps 739 mmHg 70%
    03:00 +5°C° 0.1 mm 10 mps 739 mmHg 68%
    04:00 +5°C° 0.1 mm 10 mps 739 mmHg 65%
    05:00 +5°C° 0.2 mm 10 mps 740 mmHg 65%
    06:00 +3°C° 0.2 mm 9 mps 741 mmHg 66%
    07:00 +3°C° 0.2 mm 9 mps 742 mmHg 66%
    08:00 +5°C° 0 mm 10 mps 742 mmHg 59%
    09:00 +5°C° 0 mm 10 mps 743 mmHg 52%
    10:00 +6°C° 0 mm 11 mps 744 mmHg 46%
    11:00 +6°C° 0 mm 11 mps 744 mmHg 45%
    12:00 +6°C° 0 mm 11 mps 745 mmHg 44%
    13:00 +7°C° 0 mm 11 mps 745 mmHg 44%
    14:00 +6°C° 0 mm 10 mps 746 mmHg 45%
    15:00 +6°C° 0 mm 9 mps 746 mmHg 47%
    16:00 +6°C° 0 mm 8 mps 747 mmHg 49%
    17:00 +5°C° 0 mm 8 mps 747 mmHg 51%
    18:00 +4°C° 0 mm 7 mps 748 mmHg 54%
    19:00 +4°C° 0 mm 7 mps 749 mmHg 56%
    20:00 +4°C° 0 mm 6 mps 749 mmHg 58%
    21:00 +3°C° 0 mm 6 mps 750 mmHg 60%
    22:00 +3°C° 0 mm 6 mps 750 mmHg 62%
    23:00 +3°C° 0 mm 6 mps 750 mmHg 65%

    Day after tomorrow, 25 October, Thursday

    Time Temperature Precipitation Wind Pressure Humidity
    00:00 +3°C° 0 mm 6 mps 750 mmHg 68%
    01:00 +2°C° 0 mm 6 mps 750 mmHg 71%
    02:00 +2°C° 0 mm 5 mps 749 mmHg 72%
    03:00 +2°C° 0 mm 5 mps 749 mmHg 73%
    04:00 +2°C° 0 mm 5 mps 748 mmHg 74%
    05:00 +3°C° 0.7 mm 5 mps 748 mmHg 78%
    06:00 +3°C° 0.7 mm 5 mps 747 mmHg 83%
    07:00 +3°C° 0.7 mm 5 mps 746 mmHg 88%
    08:00 +5°C° 0.9 mm 6 mps 745 mmHg 88%
    09:00 +6°C° 0.9 mm 7 mps 745 mmHg 89%
    10:00 +9°C° 0.9 mm 8 mps 744 mmHg 89%
    11:00 +8°C° 0.3 mm 9 mps 744 mmHg 87%
    12:00 +10°C° 0.3 mm 9 mps 743 mmHg 85%
    13:00 +9°C° 0.3 mm 10 mps 743 mmHg 82%
    14:00 +9°C° 0.2 mm 10 mps 743 mmHg 80%
    15:00 +10°C° 0.2 mm 9 mps 744 mmHg 78%
    16:00 +10°C° 0.2 mm 9 mps 744 mmHg 76%
    17:00 +9°C° 0.1 mm 8 mps 744 mmHg 75%
    18:00 +9°C° 0.1 mm 7 mps 745 mmHg 75%
    19:00 +8°C° 0.1 mm 7 mps 745 mmHg 74%
    20:00 +7°C° 0 mm 6 mps 745 mmHg 76%
    21:00 +7°C° 0 mm 6 mps 746 mmHg 77%
    22:00 +5°C° 0 mm 6 mps 746 mmHg 78%
    23:00 +5°C° 0 mm 6 mps 746 mmHg 79%

    26 October, Friday

    Time Temperature Precipitation Wind Pressure Humidity
    00:00 +5°C° 0 mm 6 mps 746 mmHg 81%
    01:00 +6°C° 0 mm 5 mps 746 mmHg 82%
    02:00 +5°C° 0 mm 5 mps 746 mmHg 83%
    03:00 +5°C° 0 mm 5 mps 746 mmHg 85%
    04:00 +5°C° 0 mm 5 mps 747 mmHg 86%
    05:00 +5°C° 0 mm 5 mps 746 mmHg 87%
    06:00 +5°C° 0 mm 4 mps 746 mmHg 89%
    07:00 +4°C° 0 mm 4 mps 746 mmHg 90%
    08:00 +5°C° 0 mm 4 mps 746 mmHg 87%
    09:00 +6°C° 0 mm 4 mps 746 mmHg 83%
    10:00 +7°C° 0 mm 4 mps 746 mmHg 79%
    11:00 +8°C° 0.1 mm 5 mps 745 mmHg 80%
    12:00 +9°C° 0.1 mm 5 mps 745 mmHg 81%
    13:00 +9°C° 0.1 mm 5 mps 744 mmHg 82%
    14:00 +10°C° 0 mm 5 mps 744 mmHg 81%
    15:00 +10°C° 0 mm 5 mps 743 mmHg 80%
    16:00 +11°C° 0 mm 4 mps 742 mmHg 78%
    17:00 +10°C° 0 mm 5 mps 742 mmHg 77%
    18:00 +9°C° 0 mm 6 mps 742 mmHg 76%
    19:00 +9°C° 0 mm 7 mps 742 mmHg 75%
    20:00 +8°C° 0 mm 7 mps 742 mmHg 74%
    21:00 +8°C° 0 mm 7 mps 741 mmHg 73%
    22:00 +7°C° 0 mm 8 mps 741 mmHg 73%
    23:00 +6°C° 0 mm 8 mps 741 mmHg 72%

    27 October, Saturday

    Time Temperature Precipitation Wind Pressure Humidity
    00:00 +6°C° 0 mm 8 mps 742 mmHg 72%
    01:00 +6°C° 0 mm 8 mps 742 mmHg 72%
    02:00 +5°C° 0 mm 8 mps 742 mmHg 72%
    03:00 +5°C° 0 mm 8 mps 742 mmHg 72%
    04:00 +4°C° 0 mm 8 mps 743 mmHg 73%
    05:00 +4°C° 0 mm 8 mps 743 mmHg 72%
    06:00 +4°C° 0 mm 8 mps 744 mmHg 72%
    07:00 +4°C° 0 mm 8 mps 744 mmHg 71%
    08:00 +5°C° 0 mm 8 mps 744 mmHg 70%
    09:00 +5°C° 0 mm 8 mps 745 mmHg 68%
    10:00 +5°C° 0 mm 8 mps 745 mmHg 66%
    11:00 +5°C° 0 mm 7 mps 746 mmHg 65%
    12:00 +6°C° 0 mm 7 mps 746 mmHg 64%
    13:00 +7°C° 0 mm 6 mps 746 mmHg 63%
    14:00 +7°C° 0 mm 5 mps 746 mmHg 64%
    15:00 +7°C° 0 mm 4 mps 747 mmHg 64%
    16:00 +7°C° 0 mm 3 mps 747 mmHg 64%
    17:00 +7°C° 0 mm 3 mps 747 mmHg 67%
    18:00 +6°C° 0 mm 2 mps 748 mmHg 70%
    19:00 +6°C° 0 mm 2 mps 749 mmHg 73%
    20:00 +7°C° 0 mm 1 mps 749 mmHg 75%
    21:00 +6°C° 0 mm 1 mps 749 mmHg 76%
    22:00 +6°C° 0 mm 1 mps 749 mmHg 78%
    23:00 +6°C° 0 mm 1 mps 749 mmHg 78%

    28 October, Sunday

    Time Temperature Precipitation Wind Pressure Humidity
    00:00 +6°C° 0 mm 1 mps 749 mmHg 78%
    01:00 +6°C° 0 mm 1 mps 749 mmHg 79%
    02:00 +6°C° 0 mm 1 mps 750 mmHg 79%
    03:00 +4°C° 0 mm 2 mps 750 mmHg 79%
    04:00 +4°C° 0 mm 2 mps 750 mmHg 79%
    05:00 +4°C° 0 mm 2 mps 750 mmHg 79%
    06:00 +4°C° 0 mm 2 mps 750 mmHg 79%
    07:00 +3°C° 0 mm 3 mps 751 mmHg 79%
    08:00 +4°C° 0.1 mm 3 mps 751 mmHg 76%
    09:00 +4°C° 0.1 mm 3 mps 751 mmHg 74%
    10:00 +5°C° 0.1 mm 4 mps 751 mmHg 72%
    11:00 +5°C° 0.4 mm 4 mps 751 mmHg 71%
    12:00 +5°C° 0.4 mm 5 mps 750 mmHg 71%
    13:00 +5°C° 0.4 mm 5 mps 750 mmHg 70%
    14:00 +4°C° 0.8 mm 6 mps 750 mmHg 72%
    15:00 +3°C° 0.8 mm 6 mps 750 mmHg 74%
    16:00 +3°C° 0.8 mm 6 mps 750 mmHg 76%
    17:00 +3°C° 0.5 mm 7 mps 750 mmHg 77%
    18:00 +3°C° 0.5 mm 7 mps 750 mmHg 78%
    19:00 +3°C° 0.5 mm 7 mps 750 mmHg 79%
    20:00 +2°C° 0.2 mm 8 mps 749 mmHg 79%
    21:00 +2°C° 0.2 mm 8 mps 749 mmHg 80%
    22:00 +2°C° 0.2 mm 8 mps 749 mmHg 80%
    23:00 +2°C° 1.7 mm 8 mps 748 mmHg 81%

    29 October, Monday

    Time Temperature Precipitation Wind Pressure Humidity
    00:00 +2°C° 1.7 mm 9 mps 748 mmHg 82%
    01:00 +2°C° 1.7 mm 9 mps 748 mmHg 82%
    02:00 +1°C° 1.5 mm 9 mps 747 mmHg 82%
    03:00 +1°C° 1.5 mm 10 mps 747 mmHg 82%
    04:00 +1°C° 1.5 mm 10 mps 746 mmHg 82%
    05:00 +1°C° 1.3 mm 10 mps 746 mmHg 83%
    06:00 +1°C° 1.3 mm 9 mps 745 mmHg 83%
    07:00 +1°C° 1.3 mm 9 mps 745 mmHg 84%
    08:00 +1°C° 1.1 mm 9 mps 745 mmHg 84%
    09:00 +1°C° 1.1 mm 9 mps 745 mmHg 85%
    10:00 +1°C° 1.1 mm 9 mps 745 mmHg 85%
    11:00 +1°C° 1.4 mm 9 mps 744 mmHg 86%
    12:00 +1°C° 1.4 mm 9 mps 744 mmHg 87%
    13:00 +1°C° 1.4 mm 8 mps 743 mmHg 88%
    14:00 +1°C° 1 mm 8 mps 743 mmHg 88%
    15:00 +2°C° 1 mm 7 mps 743 mmHg 89%
    16:00 +2°C° 1 mm 7 mps 743 mmHg 89%
    17:00 +2°C° 0.3 mm 7 mps 743 mmHg 90%
    18:00 +2°C° 0.3 mm 6 mps 743 mmHg 90%
    19:00 +2°C° 0.3 mm 6 mps 743 mmHg 91%
    20:00 +3°C° 0.1 mm 5 mps 743 mmHg 91%
    21:00 +3°C° 0.1 mm 5 mps 743 mmHg 92%
    22:00 +3°C° 0.1 mm 5 mps 743 mmHg 92%
    23:00 +3°C° 0 mm 5 mps 742 mmHg 93%
    Show more